sat.trackr.live / text

‹ back to catalog

KUIPER-00039

NORAD 64500 · 2025-134A

PAYLOAD ACTIVE UNKNOWN

§ Identity

Operator
Country
US
Launch date
2025-06-23
Launch site
AFETR
Launch vehicle
Mass (kg)
RCS (m²)

External: N2YO · Heavens-Above · Gunter

§ Orbital elements

Epoch: 2026-09-21T19:18:25.000992Z

Period
97.30 min
Inclination
51.9016°
Eccentricity
0.0000801
Mean motion
14.79941111 rev/d
Perigee alt
628.9 km
Apogee alt
630.1 km
Semi-major
7,007.6 km
B*
2.5850e-4
RAAN
85.8994°
Arg perigee
115.5901°
Mean anomaly
244.5145°
Rev number
6,911

§ Raw data

KUIPER-000391 64500U 25134A   26264.80445603  .00001750  00000+0  25850-3 0  99952 64500  51.9016  85.8994 0000801 115.5901 244.5145 14.79941111 69113

JSON: /api/v1/satellites/64500 · /tle

For live sub-satellite position, see the globe view (requires WebGL).

§ Visibility from observer

Set your observer location to see the next 7 days of passes ≥ 10°. The values pass through the URL so the page stays shareable.

No JS? Fill the form by hand. The geolocation button needs JavaScript.